TimeEST,TemperatureF,Dew PointF,Humidity,Sea Level PressureIn,VisibilityMPH,Wind Direction,Wind SpeedMPH,Gust SpeedMPH,PrecipitationIn,Events,Conditions,WindDirDegrees,DateUTC
12:07 AM,34.0,28.9,82,30.11,9.0,East,10.4,-,N/A,,Overcast,100,2014-01-11 05:07:00
12:53 AM,34.0,28.9,82,30.09,10.0,SE,9.2,-,N/A,,Overcast,130,2014-01-11 05:53:00
1:53 AM,34.0,30.0,85,30.03,10.0,ESE,12.7,-,N/A,,Overcast,120,2014-01-11 06:53:00
2:53 AM,35.1,30.9,85,29.98,9.0,SE,9.2,-,0.00,Rain,Light Rain,130,2014-01-11 07:53:00
3:37 AM,35.1,32.0,89,29.94,8.0,ESE,6.9,-,0.00,,Overcast,120,2014-01-11 08:37:00
3:44 AM,36.0,32.0,86,29.93,9.0,SE,8.1,-,0.00,Rain,Light Rain,130,2014-01-11 08:44:00
3:53 AM,35.1,32.0,89,29.94,9.0,ESE,3.5,-,0.00,,Overcast,120,2014-01-11 08:53:00
4:53 AM,37.0,33.1,86,29.88,10.0,ESE,10.4,-,N/A,,Overcast,120,2014-01-11 09:53:00
5:53 AM,37.0,34.0,89,29.85,8.0,ESE,5.8,-,0.00,,Overcast,120,2014-01-11 10:53:00
6:53 AM,37.9,35.1,89,29.78,9.0,SE,9.2,-,N/A,,Overcast,130,2014-01-11 11:53:00
7:53 AM,37.0,35.1,93,29.76,8.0,SSE,5.8,-,N/A,,Overcast,150,2014-01-11 12:53:00
8:53 AM,37.9,36.0,93,29.72,8.0,SE,6.9,-,N/A,,Overcast,140,2014-01-11 13:53:00
9:40 AM,39.9,37.0,89,29.67,10.0,SE,6.9,-,N/A,,Overcast,130,2014-01-11 14:40:00
9:53 AM,39.0,37.9,96,29.66,8.0,SE,10.4,-,0.00,Rain,Light Rain,130,2014-01-11 14:53:00
10:49 AM,42.8,39.2,87,29.58,10.0,SE,8.1,-,0.00,,Overcast,130,2014-01-11 15:49:00
10:53 AM,41.0,39.0,93,29.59,10.0,SE,5.8,-,0.00,,Overcast,140,2014-01-11 15:53:00
11:53 AM,39.9,37.9,93,29.52,10.0,SSE,6.9,-,0.00,,Overcast,150,2014-01-11 16:53:00
12:32 PM,42.1,39.9,92,29.50,10.0,North,5.8,-,0.01,,Overcast,360,2014-01-11 17:32:00
12:40 PM,43.0,42.1,97,29.49,3.0,NNW,10.4,-,0.03,Rain,Heavy Rain,330,2014-01-11 17:40:00
12:44 PM,44.1,42.1,93,29.48,1.8,NNW,8.1,-,0.06,Rain,Heavy Rain,340,2014-01-11 17:44:00
12:53 PM,46.0,45.0,96,29.48,1.8,Calm,Calm,-,0.08,Rain,Rain,0,2014-01-11 17:53:00
12:58 PM,43.0,42.1,97,29.47,0.8,Calm,Calm,-,0.01,Rain,Light Rain,0,2014-01-11 17:58:00
1:07 PM,41.0,39.9,96,29.47,0.2,Calm,Calm,-,0.03,Fog-Rain,Rain,0,2014-01-11 18:07:00
1:53 PM,42.1,41.0,96,29.44,0.2,Calm,Calm,-,0.13,Fog-Rain,Rain,0,2014-01-11 18:53:00
2:04 PM,41.0,39.9,96,29.42,0.2,ESE,6.9,-,0.04,Fog-Rain,Heavy Rain,110,2014-01-11 19:04:00
2:53 PM,44.1,43.0,96,29.37,0.2,SE,5.8,-,0.13,Fog-Rain,Rain,130,2014-01-11 19:53:00
3:13 PM,44.1,43.0,96,29.31,1.0,East,9.2,-,0.02,Rain,Rain,100,2014-01-11 20:13:00
3:16 PM,44.1,43.0,96,29.31,4.0,ESE,11.5,-,0.03,Rain,Light Rain,120,2014-01-11 20:16:00
3:20 PM,42.1,41.0,96,29.31,1.0,South,6.9,-,0.03,Rain,Light Rain,170,2014-01-11 20:20:00
3:25 PM,42.1,41.0,96,29.29,0.2,ESE,10.4,-,0.03,Fog-Rain,Light Rain,120,2014-01-11 20:25:00
3:34 PM,41.0,41.0,100,29.31,8.0,South,5.8,-,0.03,Rain,Light Rain,170,2014-01-11 20:34:00
3:49 PM,39.2,39.2,100,29.32,8.0,Calm,Calm,-,0.03,,Overcast,0,2014-01-11 20:49:00
3:50 PM,39.9,39.0,97,29.33,8.0,Calm,Calm,-,0.03,,Overcast,0,2014-01-11 20:50:00
3:57 PM,41.0,39.9,96,29.32,0.2,Calm,Calm,-,N/A,Fog,Fog,0,2014-01-11 20:57:00
4:19 PM,37.9,37.9,100,29.32,0.2,SSE,3.5,-,N/A,Fog,Fog,150,2014-01-11 21:19:00
4:48 PM,39.2,39.2,100,29.31,8.0,SE,5.8,-,N/A,,Overcast,140,2014-01-11 21:48:00
4:53 PM,41.0,39.9,96,29.31,8.0,SSE,5.8,-,N/A,,Overcast,150,2014-01-11 21:53:00
5:00 PM,41.0,41.0,100,29.29,2.0,ESE,6.9,-,N/A,,Overcast,110,2014-01-11 22:00:00
5:10 PM,43.0,42.1,97,29.30,1.5,East,6.9,-,N/A,,Overcast,100,2014-01-11 22:10:00
5:14 PM,44.1,43.0,96,29.30,3.0,Variable,4.6,-,N/A,,Overcast,0,2014-01-11 22:14:00
5:53 PM,44.1,43.0,96,29.29,9.0,East,3.5,-,0.00,Rain,Light Rain,80,2014-01-11 22:53:00
6:53 PM,39.9,39.0,97,29.28,4.0,Variable,5.8,-,0.00,,Overcast,0,2014-01-11 23:53:00
7:53 PM,45.0,41.0,86,29.30,10.0,West,11.5,-,0.02,Rain,Light Rain,270,2014-01-12 00:53:00
8:53 PM,43.0,37.9,82,29.34,8.0,West,12.7,19.6,0.01,Rain,Light Rain,260,2014-01-12 01:53:00
9:53 PM,42.1,34.0,73,29.35,10.0,WNW,12.7,-,0.00,,Overcast,290,2014-01-12 02:53:00
10:53 PM,41.0,33.1,73,29.39,10.0,West,15.0,26.5,0.00,Rain,Light Rain,280,2014-01-12 03:53:00
11:53 PM,39.9,33.1,77,29.42,10.0,West,12.7,-,0.01,,Overcast,270,2014-01-12 04:53:00